Location: Arbon
(43.0005°N, 0.7472°E)
Time: 12:10:28
(UTC+00:00)

Okean O Rocket - Pass Details

Date: 22 April 2026
Orbit: 613 x 635 km, 98.0° (Epoch: 16 May)

Event Time Altitude Azimuth Distance (km) Brightness Sun altitude
Exits shadow 19:15:54 - 96° (E) 2,343 3.9 -5.7°
Reaches altitude 10° 19:17:58 10° 72° (ENE) 1,992 3.7 -6.0°
Maximum altitude 19:18:53 11° 60° (ENE) 1,952 3.8 -6.2°
Drops below altitude 10° 19:19:47 10° 48° (NE) 1,992 3.9 -6.3°
Sets 19:23:50 0° 10° (N) 2,899 5.2 -7.0°
